Theta_e
315 315 313 314 314 313 313 314 313 313 313 313 314 314 313 313 311 312 313 315 317 318 316 316 315 315 311 310 312 313 310 310 313 314 315 315 316 318 319 320 322 323 323 343 354
313 314 314 313 313 313 313 312 312 312 313 313 313 312 312 312 311 313 315 316 316 318 318 317 316 313 308 311 311 311 311 312 314 315 314 315 315 316 317 317 321 322 322 346 353
313 313 313 313 312 312 312 312 312 312 312 312 312 311 311 311 313 316 316 318 318 318 319 317 315 312 310 310 311 313 313 313 315 315 315 316 316 317 316 315 317 319 320 320 335
313 312 312 312 311 311 311 311 312 312 312 311 311 311 311 312 314 319 318 318 318 318 319 318 314 311 311 310 312 311 313 314 314 316 315 314 316 317 317 315 316 316 317 318 317
312 312 311 311 311 310 311 311 311 311 311 311 311 311 311 313 314 311 316 318 318 320 318 316 313 311 313 311 311 312 311 313 314 314 314 314 315 315 315 316 316 316 316 315 315
312 311 311 311 311 311 310 309 309 310 311 311 311 311 312 313 310 311 312 316 320 317 317 316 312 313 313 312 311 312 312 312 311 311 313 314 314 315 315 316 315 316 315 314 314
311 311 311 310 311 308 307 307 306 307 309 311 311 311 313 313 311 313 312 317 321 319 317 316 314 314 315 312 312 312 311 312 313 313 313 315 314 314 315 315 314 314 315 315 315
310 310 310 310 309 308 307 306 306 306 308 312 312 312 314 313 313 315 316 317 318 320 318 316 315 313 314 311 313 312 312 313 313 315 315 314 314 315 315 315 315 315 316 316 315
310 309 309 308 307 306 306 306 304 304 310 312 313 314 315 315 317 318 316 318 318 320 318 316 315 313 311 311 314 313 313 313 315 315 315 314 314 314 315 315 316 316 317 317 315
307 307 308 308 307 306 305 304 304 309 312 314 314 316 315 317 318 319 319 318 318 319 320 318 315 315 312 313 316 315 314 313 314 315 315 315 314 314 316 318 318 318 319 318 317
303 305 307 308 307 305 305 306 312 315 316 317 317 318 318 319 320 320 320 319 319 316 321 320 317 318 316 314 316 316 316 315 315 316 316 316 315 316 317 317 316 318 319 319 317
303 304 304 304 303 302 305 308 312 313 316 316 317 317 317 318 319 320 320 320 319 318 319 322 321 318 318 317 317 317 316 315 315 316 317 317 318 318 318 318 319 319 319 321 320
301 301 302 302 302 306 309 314 314 315 315 317 317 317 315 318 319 321 319 318 317 319 320 321 323 321 320 318 318 316 316 315 315 316 319 319 319 319 321 320 319 320 319 321 322
301 302 302 304 306 305 303 306 312 313 320 318 318 320 318 318 322 320 322 318 317 319 322 321 321 323 321 319 318 318 317 316 316 316 319 318 317 320 320 321 322 320 318 321 322
301 302 302 304 305 305 303 308 312 315 324 317 323 321 320 319 323 323 322 319 318 319 322 322 322 322 320 319 319 317 317 317 316 316 320 318 317 318 319 321 321 320 322 321 323
301 301 303 304 306 306 305 307 311 321 323 320 326 327 325 321 323 323 323 320 319 319 321 322 321 320 319 320 319 318 317 316 315 315 317 318 319 318 318 322 322 322 324 322 323
301 302 303 304 306 306 307 310 317 321 315 324 329 326 326 326 326 324 324 323 321 324 327 324 323 320 321 322 318 317 314 315 320 317 318 318 319 317 319 323 322 325 323 321 324
301 302 305 307 309 309 309 316 319 315 316 319 325 325 326 326 325 325 326 327 322 325 329 328 325 322 322 320 318 315 314 318 322 322 320 321 320 319 319 324 325 325 322 324 324
303 305 308 312 311 311 313 319 316 315 315 315 316 325 321 325 325 327 326 326 324 321 327 326 328 324 321 321 320 317 317 317 321 324 326 322 321 322 321 324 323 323 326 325 325
304 307 311 315 313 313 317 316 313 313 313 316 322 323 325 320 328 327 327 325 326 322 317 322 325 324 323 321 321 319 318 319 321 328 326 324 327 333 330 329 323 327 325 325 325
305 309 315 316 316 317 319 318 317 315 318 322 325 326 325 327 326 326 328 326 325 325 318 321 327 328 327 322 319 319 320 319 319 320 325 330 335 330 332 331 329 327 325 323 322
305 308 316 313 318 317 317 317 316 318 319 321 322 324 321 319 325 324 324 326 323 323 327 319 325 327 327 325 325 327 320 322 324 327 327 330 331 330 329 329 329 327 327 327 328
305 307 311 313 317 318 317 316 313 318 319 321 320 320 321 323 324 323 322 321 322 323 328 321 326 330 329 327 326 326 322 323 324 328 331 334 332 330 329 327 327 326 328 326 328
306 313 313 311 315 316 314 314 315 314 314 320 321 319 320 322 322 324 324 322 323 323 325 327 329 329 330 332 330 330 330 329 325 327 330 331 333 331 328 325 322 322 322 323 322
309 313 310 311 310 310 311 314 316 317 317 319 319 318 313 316 322 323 323 322 322 321 323 328 331 330 329 326 327 327 328 329 331 330 330 329 330 332 327 322 322 321 322 324 321
309 309 308 308 309 307 313 315 316 316 316 319 317 315 314 317 321 325 321 319 324 322 325 325 327 326 328 329 326 325 325 328 329 331 330 326 330 328 326 323 322 321 321 321 321
304 305 307 308 310 309 313 312 313 314 315 317 315 315 319 320 319 320 319 321 318 320 322 326 326 326 330 329 327 327 322 322 326 329 329 329 324 326 325 322 320 319 319 319 318
Wind_Speed
17 17 16 17 17 16 16 16 17 16 16 17 20 22 23 25 31 26 16 21 14 8 14 14 14 15 12 5 8 5 3 4 6 7 11 12 10 7 10 5 5 4 4 11 20
19 19 19 18 18 20 20 19 19 19 18 19 19 21 22 27 31 24 38 35 28 20 11 11 11 10 4 6 5 7 9 10 8 9 11 14 7 8 7 11 3 4 6 16 17
21 20 19 19 19 19 20 21 22 21 21 21 19 20 22 23 9 10 4 6 27 26 27 16 17 11 10 9 7 5 16 10 12 20 16 14 6 6 7 6 5 5 4 6 2
22 21 20 20 20 20 21 21 20 19 19 20 20 21 21 12 7 1 3 13 4 25 20 20 8 9 7 11 14 13 16 16 16 16 12 10 6 3 4 7 8 8 7 7 7
21 21 23 22 21 21 22 22 21 20 20 19 17 16 12 5 17 24 23 21 7 20 23 15 12 9 13 14 13 19 15 15 16 15 13 8 7 6 6 8 9 8 9 10 9
22 24 23 23 23 23 25 25 25 24 22 20 18 12 7 16 21 20 21 22 13 23 22 19 9 15 9 17 15 7 18 18 12 12 10 9 7 5 7 6 9 9 10 10 11
24 24 24 25 25 28 29 28 29 28 26 21 17 13 10 29 13 18 27 19 22 25 15 25 28 13 13 10 14 15 18 13 20 9 8 5 14 14 7 9 10 11 12 12 11
24 25 26 27 29 30 32 33 33 34 28 19 15 12 11 20 23 32 26 22 23 22 27 26 30 19 18 8 13 12 11 14 9 9 8 7 23 15 10 13 14 16 12 12 13
28 30 30 31 33 34 36 38 40 33 16 8 7 9 11 14 10 24 29 19 20 19 23 26 21 16 12 11 6 10 12 9 10 8 6 14 20 14 13 14 9 18 14 12 11
29 30 32 33 35 35 37 40 33 16 7 8 9 4 9 8 10 18 15 23 15 11 14 16 9 11 11 8 16 7 7 9 12 16 21 20 21 12 11 8 9 8 9 11 13
32 31 31 34 37 37 35 17 0 3 8 11 14 10 18 19 29 11 20 14 13 15 15 14 8 18 16 14 7 11 15 13 16 21 17 19 20 12 11 9 10 9 9 10 11
30 31 31 35 38 38 29 5 9 13 14 23 29 27 36 21 18 22 19 11 17 18 15 14 24 13 11 12 16 18 20 19 16 15 11 7 6 8 12 9 9 9 8 8 7
32 31 32 35 37 21 9 15 27 34 12 25 29 26 26 27 24 26 16 16 10 17 18 21 7 16 18 19 20 21 21 15 14 17 4 7 4 7 5 7 8 7 7 2 3
34 33 32 34 14 19 16 20 25 29 5 11 7 6 12 18 16 27 23 16 9 20 18 18 16 20 23 23 21 19 21 19 20 15 5 6 5 5 6 11 7 8 7 6 9
37 36 34 23 22 8 13 20 21 10 6 10 4 15 10 16 2 20 27 15 18 19 17 17 17 24 21 24 21 18 16 17 19 8 3 9 3 5 7 11 13 9 8 9 9
42 41 36 25 16 30 24 21 18 3 8 4 5 8 9 19 19 3 15 14 11 17 18 15 11 18 19 20 24 19 15 16 9 3 5 7 4 5 5 8 10 8 10 10 11
46 46 41 27 9 7 10 7 3 6 9 3 6 5 1 4 2 3 8 17 13 14 14 11 15 10 16 16 11 16 8 4 3 7 8 9 6 8 10 7 8 14 10 10 10
49 48 31 19 15 11 5 3 8 10 15 6 6 5 10 6 6 6 7 5 20 13 6 10 6 19 12 13 8 9 7 4 6 4 3 7 15 12 19 4 14 16 12 13 11
43 28 16 15 19 17 2 6 4 7 15 18 25 5 3 16 4 2 8 12 13 15 10 2 6 6 17 17 14 7 10 7 2 6 4 4 6 6 16 12 15 15 15 12 11
33 12 14 5 22 17 5 13 13 22 27 25 18 7 8 6 8 9 9 6 12 16 15 2 7 15 15 18 20 8 6 11 3 1 6 6 2 7 12 12 8 14 11 10 10
14 6 4 19 17 2 4 7 17 23 9 9 10 9 14 8 4 6 5 5 11 13 13 2 4 8 6 17 12 10 15 6 6 7 5 1 2 5 9 6 8 10 9 10 12
8 4 5 9 1 3 5 10 19 25 19 5 9 13 3 13 5 6 6 7 5 7 3 18 5 3 5 15 14 13 6 7 5 3 2 5 3 3 8 11 9 8 12 14 11
6 4 11 3 2 5 12 17 18 11 6 6 5 2 2 4 6 6 7 6 6 1 2 11 5 1 7 7 6 6 3 1 5 4 6 4 3 6 7 8 11 9 11 12 14
4 4 4 4 3 8 14 17 21 20 10 3 9 4 7 8 8 5 8 5 9 2 10 7 4 5 5 2 3 5 2 5 0 4 4 6 5 5 9 9 8 9 10 13 16
3 3 7 6 12 20 18 17 20 13 11 3 1 6 2 6 10 5 7 4 4 4 6 4 6 9 8 0 4 3 4 3 4 2 3 6 9 5 6 7 7 8 7 9 7
3 3 5 12 11 16 10 11 19 22 18 5 4 7 10 8 16 3 4 6 5 10 10 4 2 4 3 4 8 2 5 16 8 3 2 6 2 7 8 8 4 5 7 19 15
11 13 4 7 10 12 4 14 22 20 11 1 2 6 15 2 12 5 9 2 8 10 3 4 5 5 5 10 10 3 9 9 6 7 9 4 10 12 7 10 4 12 17 17 15
Wind_Direction
343 340 338 334 332 332 328 327 323 320 317 316 316 318 321 322 318 312 246 240 242 265 239 264 277 259 222 254 263 247 215 231 237 249 267 300 350 341 312 76 56 73 56 134 127
339 337 335 332 330 329 328 327 325 320 317 316 317 318 321 325 315 279 277 270 251 234 241 225 257 244 200 215 249 189 212 227 245 256 272 284 317 335 16 340 73 66 13 114 127
338 334 331 329 328 326 323 323 324 321 319 319 318 321 324 334 288 235 333 315 238 233 231 235 244 253 207 234 224 247 235 248 228 239 252 269 312 333 1 337 337 3 349 341 118
335 335 332 329 327 322 318 316 313 312 312 314 315 318 319 326 286 103 68 0 9 221 216 225 248 248 226 220 236 252 239 239 257 270 273 274 285 278 279 263 291 322 325 333 334
333 331 329 326 324 320 318 314 309 306 306 305 305 314 333 259 245 243 268 298 231 195 208 214 223 230 239 221 238 241 247 241 240 248 258 269 266 253 250 275 299 311 320 306 299
330 323 326 327 324 321 320 316 311 306 302 300 298 300 254 257 267 275 267 260 212 193 210 213 220 220 254 231 219 250 236 250 245 240 255 268 256 246 263 256 265 263 262 267 281
330 330 326 324 320 322 321 318 314 307 302 295 292 281 247 244 260 267 283 240 218 203 221 217 225 238 232 263 229 243 258 249 237 236 251 284 279 252 227 242 244 238 228 236 246
328 328 324 321 322 321 318 315 310 305 301 289 285 252 252 263 264 275 269 265 239 216 212 223 221 238 249 252 255 249 249 249 254 213 221 183 260 259 236 236 238 234 225 214 225
322 323 324 325 324 323 319 314 307 303 293 277 244 210 261 291 234 252 242 253 245 204 227 232 226 228 249 245 264 242 243 254 254 242 227 210 250 244 243 249 245 233 232 220 216
317 317 318 319 320 321 321 317 313 297 255 218 244 235 251 239 217 228 233 220 242 211 224 234 238 226 235 209 221 234 230 243 249 234 233 238 237 233 241 240 247 232 231 205 208
319 317 318 316 318 317 323 334 256 126 209 202 197 217 280 271 314 185 194 201 242 240 206 228 218 223 217 227 235 258 245 235 231 239 235 231 231 199 222 242 262 244 238 216 205
323 320 318 315 315 314 307 244 243 275 289 223 239 233 242 254 277 281 166 180 219 225 191 221 227 221 234 229 233 244 250 257 278 268 209 179 205 201 210 220 219 232 246 224 231
332 330 330 328 322 321 247 245 281 284 274 276 248 248 237 214 239 255 187 195 210 225 198 218 227 216 236 227 225 232 243 254 254 280 230 143 227 211 252 245 240 239 198 211 306
332 329 331 333 327 328 293 304 318 337 289 285 229 230 214 207 222 226 243 179 220 222 223 219 228 224 220 236 228 230 229 247 259 269 229 145 239 245 245 250 233 224 191 119 63
331 327 325 320 289 275 276 311 323 320 289 279 99 148 158 181 37 193 222 186 209 233 205 226 204 232 220 225 238 242 243 235 246 265 289 279 105 251 232 240 228 216 155 113 91
329 326 318 314 261 263 289 305 306 254 249 262 36 348 354 192 220 139 211 200 205 232 258 238 238 235 236 234 218 243 241 245 223 220 281 239 152 272 246 259 171 168 135 115 103
329 322 308 270 238 297 294 275 242 230 295 18 10 321 319 251 156 102 209 213 205 207 245 272 250 248 261 279 230 230 217 224 191 207 229 198 256 227 258 268 175 133 124 100 96
331 321 315 265 268 262 270 235 234 255 240 357 97 63 300 247 191 157 140 221 249 137 259 206 215 213 233 229 239 219 173 168 188 194 222 243 223 232 249 88 111 120 118 97 85
330 320 290 272 238 212 235 248 258 243 267 295 317 327 166 271 274 166 175 207 256 202 211 181 269 285 225 240 237 217 234 211 120 96 4 242 291 268 233 127 119 118 106 107 101
327 296 284 280 183 190 209 241 275 296 297 311 318 207 225 264 230 168 185 232 239 259 225 140 273 254 236 211 245 215 180 222 124 59 180 263 355 29 13 21 131 113 114 110 107
319 312 292 136 172 95 237 254 273 274 308 321 308 288 317 229 183 172 146 242 213 296 204 133 133 296 317 215 203 186 213 193 165 176 199 206 127 318 340 2 48 71 62 69 25
312 301 213 320 268 235 254 278 317 313 333 309 292 264 213 278 181 198 202 153 75 323 258 217 166 249 277 313 322 304 185 161 124 222 154 150 221 332 27 15 60 46 67 47 32
306 266 307 327 275 308 310 311 311 288 339 313 276 243 296 245 257 185 200 205 140 309 247 177 178 176 319 355 321 276 201 315 131 114 181 103 259 113 40 29 35 38 44 56 67
298 308 333 313 291 316 312 312 325 308 293 258 287 349 347 297 229 220 201 165 160 206 303 325 146 174 210 172 263 202 69 32 115 123 151 159 183 170 109 89 80 79 59 44 32
242 309 18 316 331 317 318 320 332 348 330 53 29 22 161 292 272 237 176 113 107 267 311 340 151 144 178 148 301 76 86 14 317 20 133 164 165 159 139 114 118 111 132 136 116
323 326 336 299 302 307 9 343 330 329 312 335 338 308 312 254 279 206 47 165 161 201 216 243 111 111 93 190 231 219 218 171 229 138 83 329 207 178 176 124 228 187 183 87 81
337 317 290 287 310 322 353 315 333 335 306 32 295 355 331 254 323 245 211 291 131 153 139 125 164 189 152 155 199 277 215 191 183 163 103 257 278 192 163 162 160 90 82 87 86